Tracking 19149 objects as of 20-Apr-2018
HD Live streaming from Space Station
objects crossing your sky now

COSMOS 1285

Track COSMOS 1285 now!
COSMOS 1285 is classified as:


NORAD ID: 12627
Int'l Code: 1981-071A
Perigee: 5,717.0 km
Apogee: 35,107.6 km
Inclination: 68.6 °
Period: 727.0 minutes
Semi major axis: 26783 km
RCS: 7.7618 m2 (large)
Launch date: August 4, 1981
Source: Commonwealth of Independent States (former USSR) (CIS)
Launch site: PLESETSK MISSILE AND SPACE COMPLEX (PKMTR)
aabbcc
Your satellite tracking list
Your tracking list is empty




NASA's NSSDC Master Catalog

Two Line Element Set (TLE):
1 12627U 81071A   18109.79264569 -.00000504  00000-0  00000+0 0  9991
2 12627  68.5969 272.1864 5486739  67.3533 340.6600  1.98064494187495
Source of the keplerian elements: AFSPC